Torna al catalogo

CZ-6A DEB

AttivoSSO
NORAD 56284·DEBRIS·🇨🇳 China

Lanciato Nov 11, 2022 da Taiyuan Satellite Launch Center

Loading…

Prossimi Passaggi (prossime 24 ore)

TLE

AggiornatoSource: Space-Track

Epoca: Sep 14, 2026, 14:00 UTC

1 56284U 22151ADC 26257.58334863  .00003710  00000-0  75602-3 0  9992
2 56284  98.5156 296.4541 0131748  45.6385 315.5516 14.56257996182907

Traccia CZ-6A DEB in tempo reale con AllMySat

Download on the App Store